Year,Month,Day,Hour,Minute,Value (Times are PST for temperature in C)
2017,06,25,00,00,16.40
2017,06,25,00,01,16.40
2017,06,25,00,02,16.40
2017,06,25,00,03,16.30
2017,06,25,00,04,16.30
2017,06,25,00,05,16.30
2017,06,25,00,06,16.20
2017,06,25,00,07,16.20
2017,06,25,00,08,16.20
2017,06,25,00,09,16.10
2017,06,25,00,10,16.10
2017,06,25,00,11,16.10
2017,06,25,00,12,16.10
2017,06,25,00,13,16.00
2017,06,25,00,14,16.00
2017,06,25,00,15,15.90
2017,06,25,00,16,15.90
2017,06,25,00,17,15.90
2017,06,25,00,18,15.90
2017,06,25,00,19,15.90
2017,06,25,00,20,15.80
2017,06,25,00,21,15.80
2017,06,25,00,22,15.80
2017,06,25,00,23,15.80
2017,06,25,00,24,15.80
2017,06,25,00,25,15.80
2017,06,25,00,26,15.70
2017,06,25,00,27,15.80
2017,06,25,00,28,15.70
2017,06,25,00,29,15.70
2017,06,25,00,30,15.80
2017,06,25,00,31,15.80
2017,06,25,00,32,15.80
2017,06,25,00,33,15.80
2017,06,25,00,34,15.80
2017,06,25,00,35,15.80
2017,06,25,00,36,15.80
2017,06,25,00,37,15.70
2017,06,25,00,38,15.70
2017,06,25,00,39,15.70
2017,06,25,00,40,15.70
2017,06,25,00,41,15.70
2017,06,25,00,42,15.70
2017,06,25,00,43,15.60
2017,06,25,00,44,15.60
2017,06,25,00,45,15.60
2017,06,25,00,46,15.60
2017,06,25,00,47,15.60
2017,06,25,00,48,15.60
2017,06,25,00,49,15.60
2017,06,25,00,50,15.60
2017,06,25,00,51,15.60
2017,06,25,00,52,15.60
2017,06,25,00,53,15.60
2017,06,25,00,54,15.60
2017,06,25,00,55,15.60
2017,06,25,00,56,15.60
2017,06,25,00,57,15.50
2017,06,25,00,58,15.50
2017,06,25,00,59,15.50
2017,06,25,01,00,15.50
2017,06,25,01,01,15.40
2017,06,25,01,02,15.40
2017,06,25,01,03,15.40
2017,06,25,01,04,15.40
2017,06,25,01,05,15.30
2017,06,25,01,06,15.30
2017,06,25,01,07,15.30
2017,06,25,01,08,15.30
2017,06,25,01,09,15.30
2017,06,25,01,10,15.30
2017,06,25,01,11,15.20
2017,06,25,01,12,15.20
2017,06,25,01,13,15.20
2017,06,25,01,14,15.20
2017,06,25,01,15,15.20
2017,06,25,01,16,15.10
2017,06,25,01,17,15.10
2017,06,25,01,18,15.10
2017,06,25,01,19,15.10
2017,06,25,01,20,15.10
2017,06,25,01,21,15.10
2017,06,25,01,22,15.00
2017,06,25,01,23,15.00
2017,06,25,01,24,15.00
2017,06,25,01,25,15.00
2017,06,25,01,26,14.90
2017,06,25,01,27,14.90
2017,06,25,01,28,14.90
2017,06,25,01,29,14.90
2017,06,25,01,30,14.90
2017,06,25,01,31,14.80
2017,06,25,01,32,14.80
2017,06,25,01,33,14.80
2017,06,25,01,34,14.80
2017,06,25,01,35,14.80
2017,06,25,01,36,14.80
2017,06,25,01,37,14.80
2017,06,25,01,38,14.80
2017,06,25,01,39,14.90
2017,06,25,01,40,14.90
2017,06,25,01,41,14.90
2017,06,25,01,42,14.90
2017,06,25,01,43,14.90
2017,06,25,01,44,14.90
2017,06,25,01,45,14.90
2017,06,25,01,46,14.90
2017,06,25,01,47,14.90
2017,06,25,01,48,14.90
2017,06,25,01,49,14.90
2017,06,25,01,50,15.00
2017,06,25,01,51,15.00
2017,06,25,01,52,15.00
2017,06,25,01,53,15.00
2017,06,25,01,54,14.90
2017,06,25,01,55,14.90
2017,06,25,01,56,14.90
2017,06,25,01,57,14.90
2017,06,25,01,58,14.90
2017,06,25,01,59,14.90
2017,06,25,02,00,14.90
2017,06,25,02,01,14.90
2017,06,25,02,02,14.90
2017,06,25,02,03,14.90
2017,06,25,02,04,14.90
2017,06,25,02,05,14.90
2017,06,25,02,06,14.80
2017,06,25,02,07,14.80
2017,06,25,02,08,14.80
2017,06,25,02,09,14.80
2017,06,25,02,10,14.80
2017,06,25,02,11,14.80
2017,06,25,02,12,14.80
2017,06,25,02,13,14.80
2017,06,25,02,14,14.80
2017,06,25,02,15,14.80
2017,06,25,02,16,14.80
2017,06,25,02,17,14.80
2017,06,25,02,18,14.80
2017,06,25,02,19,14.80
2017,06,25,02,20,14.80
2017,06,25,02,21,14.80
2017,06,25,02,22,14.80
2017,06,25,02,23,14.80
2017,06,25,02,24,14.80
2017,06,25,02,25,14.80
2017,06,25,02,26,14.80
2017,06,25,02,27,14.80
2017,06,25,02,28,14.80
2017,06,25,02,29,14.80
2017,06,25,02,30,14.80
2017,06,25,02,31,14.80
2017,06,25,02,32,14.80
2017,06,25,02,33,14.80
2017,06,25,02,34,14.80
2017,06,25,02,35,14.80
2017,06,25,02,36,14.80
2017,06,25,02,37,14.80
2017,06,25,02,38,14.90
2017,06,25,02,39,14.90
2017,06,25,02,40,14.90
2017,06,25,02,41,14.90
2017,06,25,02,42,15.00
2017,06,25,02,43,15.00
2017,06,25,02,44,15.00
2017,06,25,02,45,15.10
2017,06,25,02,46,15.10
2017,06,25,02,47,15.10
2017,06,25,02,48,15.10
2017,06,25,02,49,15.10
2017,06,25,02,50,15.10
2017,06,25,02,51,15.20
2017,06,25,02,52,15.20
2017,06,25,02,53,15.20
2017,06,25,02,54,15.20
2017,06,25,02,55,15.20
2017,06,25,02,56,15.20
2017,06,25,02,57,15.10
2017,06,25,02,58,15.10
2017,06,25,02,59,15.10
2017,06,25,03,00,15.10
2017,06,25,03,01,15.10
2017,06,25,03,02,15.10
2017,06,25,03,03,15.10
2017,06,25,03,04,15.10
2017,06,25,03,05,15.10
2017,06,25,03,06,15.10
2017,06,25,03,07,15.00
2017,06,25,03,08,15.00
2017,06,25,03,09,15.00
2017,06,25,03,10,15.00
2017,06,25,03,11,15.00
2017,06,25,03,12,15.00
2017,06,25,03,13,15.00
2017,06,25,03,14,15.00
2017,06,25,03,15,15.00
2017,06,25,03,16,15.00
2017,06,25,03,17,15.00
2017,06,25,03,18,15.00
2017,06,25,03,19,15.10
2017,06,25,03,20,15.10
2017,06,25,03,21,15.10
2017,06,25,03,22,15.10
2017,06,25,03,23,15.00
2017,06,25,03,24,15.00
2017,06,25,03,25,15.00
2017,06,25,03,26,15.00
2017,06,25,03,27,14.90
2017,06,25,03,28,14.90
2017,06,25,03,29,14.90
2017,06,25,03,30,14.80
2017,06,25,03,31,14.80
2017,06,25,03,32,14.80
2017,06,25,03,33,14.80
2017,06,25,03,34,14.80
2017,06,25,03,35,14.80
2017,06,25,03,36,14.80
2017,06,25,03,37,14.80
2017,06,25,03,38,14.80
2017,06,25,03,39,14.70
2017,06,25,03,40,14.70
2017,06,25,03,41,14.70
2017,06,25,03,42,14.70
2017,06,25,03,43,14.80
2017,06,25,03,44,14.80
2017,06,25,03,45,14.80
2017,06,25,03,46,14.80
2017,06,25,03,47,14.80
2017,06,25,03,48,14.80
2017,06,25,03,49,14.80
2017,06,25,03,50,14.80
2017,06,25,03,51,14.80
2017,06,25,03,52,14.80
2017,06,25,03,53,14.80
2017,06,25,03,54,14.80
2017,06,25,03,55,14.80
2017,06,25,03,56,14.80
2017,06,25,03,57,14.80
2017,06,25,03,58,14.80
2017,06,25,03,59,14.70
2017,06,25,04,00,14.70
2017,06,25,04,01,14.70
2017,06,25,04,02,14.70
2017,06,25,04,03,14.70
2017,06,25,04,04,14.70
2017,06,25,04,05,14.70
2017,06,25,04,06,14.60
2017,06,25,04,07,14.60
2017,06,25,04,08,14.60
2017,06,25,04,09,14.50
2017,06,25,04,10,14.50
2017,06,25,04,11,14.50
2017,06,25,04,12,14.40
2017,06,25,04,13,14.40
2017,06,25,04,14,14.40
2017,06,25,04,15,14.40
2017,06,25,04,16,14.40
2017,06,25,04,17,14.40
2017,06,25,04,18,14.40
2017,06,25,04,19,14.40
2017,06,25,04,20,14.40
2017,06,25,04,21,14.40
2017,06,25,04,22,14.40
2017,06,25,04,23,14.40
2017,06,25,04,24,14.40
2017,06,25,04,25,14.40
2017,06,25,04,26,14.40
2017,06,25,04,27,14.50
2017,06,25,04,28,14.50
2017,06,25,04,29,14.50
2017,06,25,04,30,14.50
2017,06,25,04,31,14.50
2017,06,25,04,32,14.50
2017,06,25,04,33,14.40
2017,06,25,04,34,14.40
2017,06,25,04,35,14.40
2017,06,25,04,36,14.40
2017,06,25,04,37,14.40
2017,06,25,04,38,14.40
2017,06,25,04,39,14.40
2017,06,25,04,40,14.40
2017,06,25,04,41,14.40
2017,06,25,04,42,14.40
2017,06,25,04,43,14.40
2017,06,25,04,44,14.40
2017,06,25,04,45,14.30
2017,06,25,04,46,14.30
2017,06,25,04,47,14.30
2017,06,25,04,48,14.30
2017,06,25,04,49,14.30
2017,06,25,04,50,14.30
2017,06,25,04,51,14.30
2017,06,25,04,52,14.20
2017,06,25,04,53,14.20
2017,06,25,04,54,14.20
2017,06,25,04,55,14.20
2017,06,25,04,56,14.20
2017,06,25,04,57,14.20
2017,06,25,04,58,14.20
2017,06,25,04,59,14.20
2017,06,25,05,00,14.20
2017,06,25,05,01,14.20
2017,06,25,05,02,14.20
2017,06,25,05,03,14.20
2017,06,25,05,04,14.20
2017,06,25,05,05,14.20
2017,06,25,05,06,14.20
2017,06,25,05,07,14.20
2017,06,25,05,08,14.20
2017,06,25,05,09,14.20
2017,06,25,05,10,14.20
2017,06,25,05,11,14.20
2017,06,25,05,12,14.20
2017,06,25,05,13,14.20
2017,06,25,05,14,14.20
2017,06,25,05,15,14.20
2017,06,25,05,16,14.10
2017,06,25,05,17,14.10
2017,06,25,05,18,14.10
2017,06,25,05,19,14.10
2017,06,25,05,20,14.10
2017,06,25,05,21,14.10
2017,06,25,05,22,14.10
2017,06,25,05,23,14.10
2017,06,25,05,24,14.10
2017,06,25,05,25,14.10
2017,06,25,05,26,14.10
2017,06,25,05,27,14.10
2017,06,25,05,28,14.10
2017,06,25,05,29,14.20
2017,06,25,05,30,14.20
2017,06,25,05,31,14.20
2017,06,25,05,32,14.20
2017,06,25,05,33,14.20
2017,06,25,05,34,14.30
2017,06,25,05,35,14.30
2017,06,25,05,36,14.30
2017,06,25,05,37,14.30
2017,06,25,05,38,14.30
2017,06,25,05,39,14.30
2017,06,25,05,40,14.30
2017,06,25,05,41,14.30
2017,06,25,05,42,14.30
2017,06,25,05,43,14.30
2017,06,25,05,44,14.30
2017,06,25,05,45,14.30
2017,06,25,05,46,14.30
2017,06,25,05,47,14.30
2017,06,25,05,48,14.30
2017,06,25,05,49,14.30
2017,06,25,05,50,14.30
2017,06,25,05,51,14.30
2017,06,25,05,52,14.30
2017,06,25,05,53,14.30
2017,06,25,05,54,14.30
2017,06,25,05,55,14.30
2017,06,25,05,56,14.30
2017,06,25,05,57,14.40
2017,06,25,05,58,14.40
2017,06,25,05,59,14.40
2017,06,25,06,00,14.40
2017,06,25,06,01,14.50
2017,06,25,06,02,14.60
2017,06,25,06,03,14.60
2017,06,25,06,04,14.70
2017,06,25,06,05,14.70
2017,06,25,06,06,14.80
2017,06,25,06,07,14.80
2017,06,25,06,08,14.80
2017,06,25,06,09,14.90
2017,06,25,06,10,14.90
2017,06,25,06,11,14.90
2017,06,25,06,12,14.90
2017,06,25,06,13,15.00
2017,06,25,06,14,15.00
2017,06,25,06,15,15.00
2017,06,25,06,16,15.10
2017,06,25,06,17,15.10
2017,06,25,06,18,15.10
2017,06,25,06,19,15.10
2017,06,25,06,20,15.10
2017,06,25,06,21,15.10
2017,06,25,06,22,15.10
2017,06,25,06,23,15.20
2017,06,25,06,24,15.10
2017,06,25,06,25,15.10
2017,06,25,06,26,15.10
2017,06,25,06,27,15.10
2017,06,25,06,28,15.10
2017,06,25,06,29,15.20
2017,06,25,06,30,15.20
2017,06,25,06,31,15.30
2017,06,25,06,32,15.30
2017,06,25,06,33,15.40
2017,06,25,06,34,15.40
2017,06,25,06,35,15.50
2017,06,25,06,36,15.50
2017,06,25,06,37,15.60
2017,06,25,06,38,15.60
2017,06,25,06,39,15.70
2017,06,25,06,40,15.70
2017,06,25,06,41,15.70
2017,06,25,06,42,15.80
2017,06,25,06,43,15.80
2017,06,25,06,44,15.80
2017,06,25,06,45,15.80
2017,06,25,06,46,15.80
2017,06,25,06,47,15.90
2017,06,25,06,48,15.90
2017,06,25,06,49,16.00
2017,06,25,06,50,16.10
2017,06,25,06,51,16.20
2017,06,25,06,52,16.20
2017,06,25,06,53,16.30
2017,06,25,06,54,16.30
2017,06,25,06,55,16.40
2017,06,25,06,56,16.40
2017,06,25,06,57,16.40
2017,06,25,06,58,16.50
2017,06,25,06,59,16.60
2017,06,25,07,00,16.70
2017,06,25,07,01,16.70
2017,06,25,07,02,16.80
2017,06,25,07,03,16.80
2017,06,25,07,04,17.00
2017,06,25,07,05,17.10
2017,06,25,07,06,17.20
2017,06,25,07,07,17.20
2017,06,25,07,08,17.30
2017,06,25,07,09,17.30
2017,06,25,07,10,17.30
2017,06,25,07,11,17.30
2017,06,25,07,12,17.30
2017,06,25,07,13,17.30
2017,06,25,07,14,17.40
2017,06,25,07,15,17.40
2017,06,25,07,16,17.40
2017,06,25,07,17,17.50
2017,06,25,07,18,17.40
2017,06,25,07,19,17.40
2017,06,25,07,20,17.40
2017,06,25,07,21,17.40
2017,06,25,07,22,17.30
2017,06,25,07,23,17.30
2017,06,25,07,24,17.20
2017,06,25,07,25,17.20
2017,06,25,07,26,17.20
2017,06,25,07,27,17.20
2017,06,25,07,28,17.10
2017,06,25,07,29,17.10
2017,06,25,07,30,17.10
2017,06,25,07,31,17.10
2017,06,25,07,32,17.10
2017,06,25,07,33,17.10
2017,06,25,07,34,17.10
2017,06,25,07,35,17.10
2017,06,25,07,36,17.10
2017,06,25,07,37,17.10
2017,06,25,07,38,17.10
2017,06,25,07,39,17.10
2017,06,25,07,40,17.10
2017,06,25,07,41,17.10
2017,06,25,07,42,17.20
2017,06,25,07,43,17.20
2017,06,25,07,44,17.30
2017,06,25,07,45,17.40
2017,06,25,07,46,17.50
2017,06,25,07,47,17.60
2017,06,25,07,48,17.80
2017,06,25,07,49,17.90
2017,06,25,07,50,18.00
2017,06,25,07,51,18.10
2017,06,25,07,52,18.20
2017,06,25,07,53,18.30
2017,06,25,07,54,18.40
2017,06,25,07,55,18.50
2017,06,25,07,56,18.60
2017,06,25,07,57,18.70
2017,06,25,07,58,18.80
2017,06,25,07,59,18.90
2017,06,25,08,00,19.00
2017,06,25,08,01,19.10
2017,06,25,08,02,19.20
2017,06,25,08,03,19.30
2017,06,25,08,04,19.40
2017,06,25,08,05,19.50
2017,06,25,08,06,19.60
2017,06,25,08,07,19.80
2017,06,25,08,08,19.90
2017,06,25,08,09,20.00
2017,06,25,08,10,20.20
2017,06,25,08,11,20.30
2017,06,25,08,12,20.40
2017,06,25,08,13,20.40
2017,06,25,08,14,20.40
2017,06,25,08,15,20.50
2017,06,25,08,16,20.50
2017,06,25,08,17,20.70
2017,06,25,08,18,20.80
2017,06,25,08,19,20.90
2017,06,25,08,20,21.00
2017,06,25,08,21,21.10
2017,06,25,08,22,21.20
2017,06,25,08,23,21.30
2017,06,25,08,24,21.30
2017,06,25,08,25,21.40
2017,06,25,08,26,21.50
2017,06,25,08,27,21.60
2017,06,25,08,28,21.80
2017,06,25,08,29,21.90
2017,06,25,08,30,22.00
2017,06,25,08,31,22.20
2017,06,25,08,32,22.30
2017,06,25,08,33,22.40
2017,06,25,08,34,22.50
2017,06,25,08,35,22.60
2017,06,25,08,36,22.70
2017,06,25,08,37,22.80
2017,06,25,08,38,22.80
2017,06,25,08,39,22.90
2017,06,25,08,40,23.00
2017,06,25,08,41,23.10
2017,06,25,08,42,23.20
2017,06,25,08,43,23.30
2017,06,25,08,44,23.50
2017,06,25,08,45,23.60
2017,06,25,08,46,23.70
2017,06,25,08,47,23.80
2017,06,25,08,48,23.90
2017,06,25,08,49,24.00
2017,06,25,08,50,24.00
2017,06,25,08,51,24.10
2017,06,25,08,52,24.30
2017,06,25,08,53,24.40
2017,06,25,08,54,24.40
2017,06,25,08,55,24.50
2017,06,25,08,56,24.60
2017,06,25,08,57,24.70
2017,06,25,08,58,24.80
2017,06,25,08,59,25.00
2017,06,25,09,00,25.10
2017,06,25,09,01,25.20
2017,06,25,09,02,25.30
2017,06,25,09,03,25.30
2017,06,25,09,04,25.40
2017,06,25,09,05,25.40
2017,06,25,09,06,25.50
2017,06,25,09,07,25.60
2017,06,25,09,08,25.70
2017,06,25,09,09,25.60
2017,06,25,09,10,25.60
2017,06,25,09,11,25.60
2017,06,25,09,12,25.50
2017,06,25,09,13,25.50
2017,06,25,09,14,25.60
2017,06,25,09,15,25.70
2017,06,25,09,16,25.80
2017,06,25,09,17,25.90
2017,06,25,09,18,26.10
2017,06,25,09,19,26.20
2017,06,25,09,20,26.30
2017,06,25,09,21,26.40
2017,06,25,09,22,26.50
2017,06,25,09,23,26.60
2017,06,25,09,24,26.60
2017,06,25,09,25,26.60
2017,06,25,09,26,26.60
2017,06,25,09,27,26.60
2017,06,25,09,28,26.60
2017,06,25,09,29,26.60
2017,06,25,09,30,26.60
2017,06,25,09,31,26.60
2017,06,25,09,32,26.70
2017,06,25,09,33,26.90
2017,06,25,09,34,27.00
2017,06,25,09,35,27.00
2017,06,25,09,36,27.10
2017,06,25,09,37,27.20
2017,06,25,09,38,27.20
2017,06,25,09,39,27.30
2017,06,25,09,40,27.40
2017,06,25,09,41,27.50
2017,06,25,09,42,27.60
2017,06,25,09,43,27.60
2017,06,25,09,44,27.60
2017,06,25,09,45,27.70
2017,06,25,09,46,27.80
2017,06,25,09,47,27.80
2017,06,25,09,48,27.80
2017,06,25,09,49,27.80
2017,06,25,09,50,27.80
2017,06,25,09,51,27.80
2017,06,25,09,52,27.80
2017,06,25,09,53,27.80
2017,06,25,09,54,27.70
2017,06,25,09,55,27.70
2017,06,25,09,56,27.60
2017,06,25,09,57,27.50
2017,06,25,09,58,27.40
2017,06,25,09,59,27.40
2017,06,25,10,00,27.50
2017,06,25,10,01,27.60
2017,06,25,10,02,27.70
2017,06,25,10,03,27.80
2017,06,25,10,04,27.90
2017,06,25,10,05,28.00
2017,06,25,10,06,28.10
2017,06,25,10,07,28.30
2017,06,25,10,08,28.30
2017,06,25,10,09,28.20
2017,06,25,10,10,28.20
2017,06,25,10,11,28.30
2017,06,25,10,12,28.20
2017,06,25,10,13,28.20
2017,06,25,10,14,28.20
2017,06,25,10,15,28.10
2017,06,25,10,16,28.10
2017,06,25,10,17,28.00
2017,06,25,10,18,28.00
2017,06,25,10,19,28.00
2017,06,25,10,20,28.00
2017,06,25,10,21,28.00
2017,06,25,10,22,28.10
2017,06,25,10,23,28.20
2017,06,25,10,24,28.20
2017,06,25,10,25,28.20
2017,06,25,10,26,28.20
2017,06,25,10,27,28.30
2017,06,25,10,28,28.30
2017,06,25,10,29,28.30
2017,06,25,10,30,28.20
2017,06,25,10,31,28.20
2017,06,25,10,32,28.10
2017,06,25,10,33,28.10
2017,06,25,10,34,28.10
2017,06,25,10,35,28.20
2017,06,25,10,36,28.20
2017,06,25,10,37,28.00
2017,06,25,10,38,27.90
2017,06,25,10,39,27.80
2017,06,25,10,40,27.70
2017,06,25,10,41,27.70
2017,06,25,10,42,27.70
2017,06,25,10,43,27.80
2017,06,25,10,44,27.90
2017,06,25,10,45,27.90
2017,06,25,10,46,27.90
2017,06,25,10,47,27.90
2017,06,25,10,48,27.90
2017,06,25,10,49,27.90
2017,06,25,10,50,27.90
2017,06,25,10,51,27.90
2017,06,25,10,52,27.70
2017,06,25,10,53,27.40
2017,06,25,10,54,27.20
2017,06,25,10,55,27.20
2017,06,25,10,56,27.20
2017,06,25,10,57,27.20
2017,06,25,10,58,27.10
2017,06,25,10,59,27.00
2017,06,25,11,00,26.80
2017,06,25,11,01,26.70
2017,06,25,11,02,26.50
2017,06,25,11,03,26.40
2017,06,25,11,04,26.40
2017,06,25,11,05,26.40
2017,06,25,11,06,26.40
2017,06,25,11,07,26.50
2017,06,25,11,08,26.50
2017,06,25,11,09,26.30
2017,06,25,11,10,26.00
2017,06,25,11,11,25.70
2017,06,25,11,12,25.40
2017,06,25,11,13,25.00
2017,06,25,11,14,24.70
2017,06,25,11,15,24.40
2017,06,25,11,16,24.30
2017,06,25,11,17,24.20
2017,06,25,11,18,24.10
2017,06,25,11,19,24.00
2017,06,25,11,20,24.00
2017,06,25,11,21,23.90
2017,06,25,11,22,24.00
2017,06,25,11,23,24.10
2017,06,25,11,24,24.10
2017,06,25,11,25,24.00
2017,06,25,11,26,24.00
2017,06,25,11,27,23.90
2017,06,25,11,28,23.80
2017,06,25,11,29,23.70
2017,06,25,11,30,23.60
2017,06,25,11,31,23.60
2017,06,25,11,32,23.50
2017,06,25,11,33,23.60
2017,06,25,11,34,23.60
2017,06,25,11,35,23.70
2017,06,25,11,36,23.70
2017,06,25,11,37,23.70
2017,06,25,11,38,23.70
2017,06,25,11,39,23.70
2017,06,25,11,40,23.60
2017,06,25,11,41,23.50
2017,06,25,11,42,23.50
2017,06,25,11,43,23.50
2017,06,25,11,44,23.50
2017,06,25,11,45,23.40
2017,06,25,11,46,23.40
2017,06,25,11,47,23.30
2017,06,25,11,48,23.30
2017,06,25,11,49,23.40
2017,06,25,11,50,23.40
2017,06,25,11,51,23.40
2017,06,25,11,52,23.30
2017,06,25,11,53,23.30
2017,06,25,11,54,23.30
2017,06,25,11,55,23.20
2017,06,25,11,56,23.20
2017,06,25,11,57,23.20
2017,06,25,11,58,23.20
2017,06,25,11,59,23.20
2017,06,25,12,00,23.10
2017,06,25,12,01,23.10
2017,06,25,12,02,23.10
2017,06,25,12,03,23.10
2017,06,25,12,04,23.10
2017,06,25,12,05,23.10
2017,06,25,12,06,23.00
2017,06,25,12,07,23.00
2017,06,25,12,08,23.00
2017,06,25,12,09,23.10
2017,06,25,12,10,23.20
2017,06,25,12,11,23.20
2017,06,25,12,12,23.20
2017,06,25,12,13,23.30
2017,06,25,12,14,23.40
2017,06,25,12,15,23.50
2017,06,25,12,16,23.70
2017,06,25,12,17,23.80
2017,06,25,12,18,23.90
2017,06,25,12,19,23.90
2017,06,25,12,20,23.90
2017,06,25,12,21,24.00
2017,06,25,12,22,24.00
2017,06,25,12,23,24.10
2017,06,25,12,24,24.10
2017,06,25,12,25,24.20
2017,06,25,12,26,24.20
2017,06,25,12,27,24.20
2017,06,25,12,28,24.20
2017,06,25,12,29,24.30
2017,06,25,12,30,24.30
2017,06,25,12,31,24.30
2017,06,25,12,32,24.30
2017,06,25,12,33,24.20
2017,06,25,12,34,24.10
2017,06,25,12,35,24.10
2017,06,25,12,36,24.10
2017,06,25,12,37,24.10
2017,06,25,12,38,24.10
2017,06,25,12,39,24.20
2017,06,25,12,40,24.20
2017,06,25,12,41,24.30
2017,06,25,12,42,24.40
2017,06,25,12,43,24.50
2017,06,25,12,44,24.60
2017,06,25,12,45,24.60
2017,06,25,12,46,24.70
2017,06,25,12,47,24.80
2017,06,25,12,48,24.80
2017,06,25,12,49,24.90
2017,06,25,12,50,25.00
2017,06,25,12,51,25.10
2017,06,25,12,52,25.20
2017,06,25,12,53,25.30
2017,06,25,12,54,25.40
2017,06,25,12,55,25.40
2017,06,25,12,56,25.40
2017,06,25,12,57,25.50
2017,06,25,12,58,25.60
2017,06,25,12,59,25.70
2017,06,25,13,00,25.70
2017,06,25,13,01,25.80
2017,06,25,13,02,25.80
2017,06,25,13,03,26.00
2017,06,25,13,04,26.00
2017,06,25,13,05,26.10
2017,06,25,13,06,26.10
2017,06,25,13,07,26.10
2017,06,25,13,08,26.20
2017,06,25,13,09,26.30
2017,06,25,13,10,26.30
2017,06,25,13,11,26.30
2017,06,25,13,12,26.30
2017,06,25,13,13,26.30
2017,06,25,13,14,26.30
2017,06,25,13,15,26.20
2017,06,25,13,16,26.30
2017,06,25,13,17,26.30
2017,06,25,13,18,26.10
2017,06,25,13,19,26.00
2017,06,25,13,20,26.00
2017,06,25,13,21,25.90
2017,06,25,13,22,25.90
2017,06,25,13,23,25.80
2017,06,25,13,24,25.80
2017,06,25,13,25,25.80
2017,06,25,13,26,25.70
2017,06,25,13,27,25.70
2017,06,25,13,28,25.60
2017,06,25,13,29,25.50
2017,06,25,13,30,25.40
2017,06,25,13,31,25.30
2017,06,25,13,32,25.30
2017,06,25,13,33,25.20
2017,06,25,13,34,25.10
2017,06,25,13,35,25.10
2017,06,25,13,36,25.10
2017,06,25,13,37,25.30
2017,06,25,13,38,25.40
2017,06,25,13,39,25.60
2017,06,25,13,40,25.70
2017,06,25,13,41,25.70
2017,06,25,13,42,25.80
2017,06,25,13,43,25.90
2017,06,25,13,44,26.00
2017,06,25,13,45,26.10
2017,06,25,13,46,26.10
2017,06,25,13,47,26.10
2017,06,25,13,48,26.10
2017,06,25,13,49,26.20
2017,06,25,13,50,26.10
2017,06,25,13,51,26.10
2017,06,25,13,52,26.10
2017,06,25,13,53,26.10
2017,06,25,13,54,26.10
2017,06,25,13,55,26.00
2017,06,25,13,56,25.90
2017,06,25,13,57,25.80
2017,06,25,13,58,25.80
2017,06,25,13,59,25.80
2017,06,25,14,00,25.80
2017,06,25,14,01,25.60
2017,06,25,14,02,25.50
2017,06,25,14,03,25.30
2017,06,25,14,04,25.10
2017,06,25,14,05,25.00
2017,06,25,14,06,24.90
2017,06,25,14,07,24.80
2017,06,25,14,08,24.60
2017,06,25,14,09,24.50
2017,06,25,14,10,24.40
2017,06,25,14,11,24.30
2017,06,25,14,12,24.20
2017,06,25,14,13,24.20
2017,06,25,14,14,24.10
2017,06,25,14,15,24.10
2017,06,25,14,16,24.00
2017,06,25,14,17,24.00
2017,06,25,14,18,23.90
2017,06,25,14,19,23.80
2017,06,25,14,20,23.70
2017,06,25,14,21,23.50
2017,06,25,14,22,23.40
2017,06,25,14,23,23.30
2017,06,25,14,24,23.20
2017,06,25,14,25,23.10
2017,06,25,14,26,23.10
2017,06,25,14,27,23.10
2017,06,25,14,28,23.10
2017,06,25,14,29,23.10
2017,06,25,14,30,23.10
2017,06,25,14,31,23.10
2017,06,25,14,32,23.20
2017,06,25,14,33,23.20
2017,06,25,14,34,23.30
2017,06,25,14,35,23.40
2017,06,25,14,36,23.50
2017,06,25,14,37,23.50
2017,06,25,14,38,23.50
2017,06,25,14,39,23.60
2017,06,25,14,40,23.60
2017,06,25,14,41,23.60
2017,06,25,14,42,23.70
2017,06,25,14,43,23.70
2017,06,25,14,44,23.70
2017,06,25,14,45,23.70
2017,06,25,14,46,23.70
2017,06,25,14,47,23.80
2017,06,25,14,48,23.80
2017,06,25,14,49,23.80
2017,06,25,14,50,23.80
2017,06,25,14,51,23.80
2017,06,25,14,52,23.70
2017,06,25,14,53,23.60
2017,06,25,14,54,23.60
2017,06,25,14,55,23.60
2017,06,25,14,56,23.60
2017,06,25,14,57,23.60
2017,06,25,14,58,23.60
2017,06,25,14,59,23.50
2017,06,25,15,00,23.50
2017,06,25,15,01,23.60
2017,06,25,15,02,23.70
2017,06,25,15,03,23.80
2017,06,25,15,04,23.90
2017,06,25,15,05,24.10
2017,06,25,15,06,24.30
2017,06,25,15,07,24.50
2017,06,25,15,08,24.70
2017,06,25,15,09,24.90
2017,06,25,15,10,25.00
2017,06,25,15,11,25.20
2017,06,25,15,12,25.30
2017,06,25,15,13,25.40
2017,06,25,15,14,25.50
2017,06,25,15,15,25.60
2017,06,25,15,16,25.60
2017,06,25,15,17,25.60
2017,06,25,15,18,25.50
2017,06,25,15,19,25.40
2017,06,25,15,20,25.40
2017,06,25,15,21,25.40
2017,06,25,15,22,25.40
2017,06,25,15,23,25.40
2017,06,25,15,24,25.40
2017,06,25,15,25,25.40
2017,06,25,15,26,25.40
2017,06,25,15,27,25.40
2017,06,25,15,28,25.50
2017,06,25,15,29,25.60
2017,06,25,15,30,25.70
2017,06,25,15,31,25.80
2017,06,25,15,32,25.80
2017,06,25,15,33,25.90
2017,06,25,15,34,25.90
2017,06,25,15,35,26.00
2017,06,25,15,36,26.10
2017,06,25,15,37,26.10
2017,06,25,15,38,26.20
2017,06,25,15,39,26.20
2017,06,25,15,40,26.20
2017,06,25,15,41,26.20
2017,06,25,15,42,26.20
2017,06,25,15,43,26.30
2017,06,25,15,44,26.40
2017,06,25,15,45,26.50
2017,06,25,15,46,26.60
2017,06,25,15,47,26.70
2017,06,25,15,48,26.80
2017,06,25,15,49,26.80
2017,06,25,15,50,26.90
2017,06,25,15,51,26.90
2017,06,25,15,52,27.00
2017,06,25,15,53,27.10
2017,06,25,15,54,27.10
2017,06,25,15,55,27.20
2017,06,25,15,56,27.20
2017,06,25,15,57,27.10
2017,06,25,15,58,27.20
2017,06,25,15,59,27.10
2017,06,25,16,00,27.10
2017,06,25,16,01,27.00
2017,06,25,16,02,26.80
2017,06,25,16,03,26.80
2017,06,25,16,04,26.80
2017,06,25,16,05,26.80
2017,06,25,16,06,26.70
2017,06,25,16,07,26.70
2017,06,25,16,08,26.70
2017,06,25,16,09,26.60
2017,06,25,16,10,26.50
2017,06,25,16,11,26.40
2017,06,25,16,12,26.30
2017,06,25,16,13,26.20
2017,06,25,16,14,26.00
2017,06,25,16,15,25.70
2017,06,25,16,16,25.50
2017,06,25,16,17,25.40
2017,06,25,16,18,25.30
2017,06,25,16,19,25.30
2017,06,25,16,20,25.20
2017,06,25,16,21,25.10
2017,06,25,16,22,25.20
2017,06,25,16,23,25.20
2017,06,25,16,24,25.20
2017,06,25,16,25,25.20
2017,06,25,16,26,25.20
2017,06,25,16,27,25.10
2017,06,25,16,28,25.10
2017,06,25,16,29,25.00
2017,06,25,16,30,25.00
2017,06,25,16,31,25.00
2017,06,25,16,32,24.90
2017,06,25,16,33,24.90
2017,06,25,16,34,24.90
2017,06,25,16,35,24.90
2017,06,25,16,36,25.00
2017,06,25,16,37,25.00
2017,06,25,16,38,25.10
2017,06,25,16,39,25.10
2017,06,25,16,40,25.00
2017,06,25,16,41,24.90
2017,06,25,16,42,24.90
2017,06,25,16,43,24.90
2017,06,25,16,44,25.00
2017,06,25,16,45,25.00
2017,06,25,16,46,25.00
2017,06,25,16,47,25.00
2017,06,25,16,48,25.00
2017,06,25,16,49,24.90
2017,06,25,16,50,24.90
2017,06,25,16,51,24.90
2017,06,25,16,52,24.90
2017,06,25,16,53,25.00
2017,06,25,16,54,25.00
2017,06,25,16,55,25.10
2017,06,25,16,56,25.00
2017,06,25,16,57,25.00
2017,06,25,16,58,24.90
2017,06,25,16,59,24.90
2017,06,25,17,00,24.90
2017,06,25,17,01,24.90
2017,06,25,17,02,24.90
2017,06,25,17,03,24.90
2017,06,25,17,04,24.90
2017,06,25,17,05,24.90
2017,06,25,17,06,24.90
2017,06,25,17,07,24.90
2017,06,25,17,08,24.90
2017,06,25,17,09,24.90
2017,06,25,17,10,24.90
2017,06,25,17,11,24.90
2017,06,25,17,12,24.90
2017,06,25,17,13,25.00
2017,06,25,17,14,25.00
2017,06,25,17,15,25.00
2017,06,25,17,16,24.90
2017,06,25,17,17,24.90
2017,06,25,17,18,24.80
2017,06,25,17,19,24.60